TimeCDT,TemperatureF,Dew PointF,Humidity,Sea Level PressureIn,VisibilityMPH,Wind Direction,Wind SpeedMPH,Gust SpeedMPH,PrecipitationIn,Events,Conditions,WindDirDegrees,DateUTC
12:15 AM,71.6,62.6,73,29.93,10.0,South,6.9,-,N/A,,Clear,170,2013-05-29 05:15:00
12:35 AM,71.6,62.6,73,29.92,10.0,South,6.9,-,N/A,,Clear,180,2013-05-29 05:35:00
12:55 AM,71.6,62.6,73,29.92,10.0,SSE,8.1,-,N/A,,Clear,160,2013-05-29 05:55:00
1:15 AM,69.8,62.6,78,29.92,10.0,South,8.1,-,N/A,,Clear,170,2013-05-29 06:15:00
1:35 AM,71.6,62.6,73,29.92,10.0,South,8.1,-,N/A,,Clear,170,2013-05-29 06:35:00
1:55 AM,69.8,62.6,78,29.90,10.0,SSE,9.2,-,N/A,,Clear,160,2013-05-29 06:55:00
2:15 AM,69.8,62.6,78,29.91,10.0,South,8.1,-,N/A,,Clear,170,2013-05-29 07:15:00
2:35 AM,69.8,62.6,78,29.91,10.0,SSE,9.2,-,N/A,,Clear,160,2013-05-29 07:35:00
2:55 AM,68.0,62.6,83,29.91,10.0,SSE,6.9,-,N/A,,Clear,150,2013-05-29 07:55:00
3:15 AM,68.0,62.6,83,29.91,10.0,SSE,6.9,-,N/A,,Clear,160,2013-05-29 08:15:00
3:35 AM,68.0,62.6,83,29.92,10.0,SSE,5.8,-,N/A,,Clear,150,2013-05-29 08:35:00
3:55 AM,66.2,62.6,88,29.91,10.0,ESE,4.6,-,N/A,,Clear,110,2013-05-29 08:55:00
4:15 AM,66.2,62.6,88,29.92,10.0,ESE,5.8,-,N/A,,Clear,110,2013-05-29 09:15:00
4:35 AM,66.2,62.6,88,29.91,10.0,ESE,5.8,-,N/A,,Clear,120,2013-05-29 09:35:00
4:55 AM,66.2,62.6,88,29.92,10.0,ESE,6.9,-,N/A,,Clear,120,2013-05-29 09:55:00
5:15 AM,66.2,62.6,88,29.93,10.0,SE,6.9,-,N/A,,Clear,140,2013-05-29 10:15:00
5:35 AM,66.2,62.6,88,29.94,10.0,SSE,5.8,-,N/A,,Clear,150,2013-05-29 10:35:00
5:55 AM,66.2,62.6,88,29.94,10.0,SE,8.1,-,N/A,,Clear,140,2013-05-29 10:55:00
6:15 AM,66.2,62.6,88,29.94,10.0,SSE,8.1,-,N/A,,Clear,150,2013-05-29 11:15:00
6:35 AM,68.0,64.4,88,29.94,10.0,SE,8.1,-,N/A,,Clear,140,2013-05-29 11:35:00
6:45 AM,68.0,64.4,88,29.94,10.0,SE,8.1,-,N/A,,Mostly Cloudy,140,2013-05-29 11:45:00
7:46 AM,68.0,64.4,88,29.96,10.0,SE,5.8,-,N/A,,Mostly Cloudy,140,2013-05-29 12:46:00
8:45 AM,73.4,64.4,73,29.96,10.0,SSE,9.2,-,N/A,,Mostly Cloudy,160,2013-05-29 13:45:00
9:45 AM,75.2,64.4,69,29.96,10.0,SSE,8.1,-,N/A,,Mostly Cloudy,150,2013-05-29 14:45:00
10:45 AM,75.2,62.6,65,29.96,10.0,South,10.4,20.7,N/A,,Mostly Cloudy,170,2013-05-29 15:45:00
11:45 AM,77.0,62.6,61,29.95,10.0,SSE,11.5,20.7,N/A,,Mostly Cloudy,160,2013-05-29 16:45:00
12:45 PM,80.6,62.6,54,29.94,10.0,West,12.7,27.6,N/A,,Mostly Cloudy,270,2013-05-29 17:45:00
1:46 PM,80.6,62.6,54,29.93,10.0,South,11.5,18.4,N/A,,Overcast,170,2013-05-29 18:46:00
2:46 PM,80.6,64.4,58,29.91,10.0,SSE,13.8,20.7,N/A,,Mostly Cloudy,160,2013-05-29 19:46:00
3:46 PM,80.6,62.6,54,29.90,10.0,South,12.7,18.4,N/A,,Mostly Cloudy,170,2013-05-29 20:46:00
4:45 PM,80.6,64.4,58,29.89,10.0,SSE,12.7,21.9,N/A,,Mostly Cloudy,150,2013-05-29 21:45:00
5:45 PM,80.6,64.4,58,29.86,10.0,SE,16.1,26.5,N/A,,Mostly Cloudy,140,2013-05-29 22:45:00
6:45 PM,78.8,64.4,61,29.83,10.0,SE,12.7,20.7,N/A,,Mostly Cloudy,140,2013-05-29 23:45:00
7:45 PM,75.2,62.6,65,29.83,10.0,SSE,15.0,26.5,N/A,,Scattered Clouds,150,2013-05-30 00:45:00
8:45 PM,73.4,62.6,69,29.87,10.0,SSE,12.7,19.6,N/A,,Mostly Cloudy,160,2013-05-30 01:45:00
9:15 PM,73.4,62.6,69,29.88,10.0,SSE,6.9,-,N/A,,Partly Cloudy,150,2013-05-30 02:15:00
9:35 PM,73.4,62.6,69,29.88,10.0,SSE,8.1,-,N/A,,Scattered Clouds,150,2013-05-30 02:35:00
9:55 PM,71.6,62.6,73,29.88,10.0,SSE,5.8,-,N/A,,Scattered Clouds,160,2013-05-30 02:55:00
10:15 PM,71.6,62.6,73,29.88,10.0,SSE,5.8,-,N/A,,Clear,160,2013-05-30 03:15:00
10:35 PM,71.6,62.6,73,29.88,10.0,SSE,5.8,-,N/A,,Clear,150,2013-05-30 03:35:00
10:55 PM,69.8,62.6,78,29.88,10.0,SE,8.1,-,N/A,,Clear,140,2013-05-30 03:55:00
11:15 PM,69.8,62.6,78,29.88,10.0,SE,5.8,-,N/A,,Partly Cloudy,140,2013-05-30 04:15:00
11:35 PM,71.6,62.6,73,29.87,10.0,SSE,6.9,-,N/A,,Clear,150,2013-05-30 04:35:00
11:55 PM,71.6,62.6,73,29.86,10.0,SE,10.4,-,N/A,,Clear,130,2013-05-30 04:55:00